70P/Kojima (2021)

Japanese version
Home page
Updated on June 26, 2022

---------------------------------------------------------------------

* Profile

* Pictures

* Orbital Elements

Epoch 2022 Jan. 21.0 TT = JDT 2459600.5
T 2021 Nov. 3.10885 TT                                  Rudenko
q   2.0089959            (2000.0)            P               Q
n   0.13971567     Peri.    1.82600     -0.51625864     -0.85054707
a   3.6782336      Node   119.26794     +0.78429813     -0.51653953
e   0.4538150      Incl.    6.59793     +0.34402539     -0.09877552
P   7.05
From 1614 observations 1970 Dec. 27-2022 Feb. 2, mean residual 0".6.
     Nongravitational parameters A1 = +0.02, A2 = -0.0075.

* Finding Charts

* Magnitudes Graph

        m1 = 10.5 + 5 log d + 15.0 log r(t - 50)

---------------------------------------------------------------------

The orbital elements are published on M.P.E.C. 2022-C56.
The charts are made with StellaNavigator Ver.10 (AstroArts).
The magnitudes graphs are made with Comet for Windows.

---------------------------------------------------------------------

Copyright(C) Seiichi Yoshida (comet@aerith.net). All rights reserved.